TimeEDT,TemperatureF,Dew PointF,Humidity,Sea Level PressureIn,VisibilityMPH,Wind Direction,Wind SpeedMPH,Gust SpeedMPH,PrecipitationIn,Events,Conditions,WindDirDegrees,DateUTC
12:56 AM,46.9,26.1,44,29.94,10.0,West,6.9,-,N/A,,Clear,270,2012-11-02 04:56:00
1:56 AM,48.0,25.0,41,29.94,10.0,WNW,8.1,-,N/A,,Clear,290,2012-11-02 05:56:00
2:56 AM,46.0,26.1,46,29.95,10.0,West,6.9,-,N/A,,Clear,280,2012-11-02 06:56:00
3:56 AM,44.1,26.1,49,29.95,10.0,WNW,3.5,-,N/A,,Clear,290,2012-11-02 07:56:00
4:56 AM,43.0,26.1,51,29.96,10.0,Calm,Calm,-,N/A,,Clear,0,2012-11-02 08:56:00
5:56 AM,41.0,27.0,57,29.97,10.0,West,3.5,-,N/A,,Clear,270,2012-11-02 09:56:00
6:56 AM,41.0,27.0,57,29.97,10.0,WSW,3.5,-,N/A,,Clear,250,2012-11-02 10:56:00
7:56 AM,39.9,30.0,68,30.00,10.0,West,3.5,-,N/A,,Clear,260,2012-11-02 11:56:00
8:56 AM,46.9,28.9,50,30.01,10.0,WSW,4.6,-,N/A,,Partly Cloudy,240,2012-11-02 12:56:00
9:56 AM,55.0,30.0,38,30.00,10.0,West,5.8,-,N/A,,Partly Cloudy,260,2012-11-02 13:56:00
10:56 AM,63.0,32.0,31,30.00,10.0,West,10.4,-,N/A,,Partly Cloudy,260,2012-11-02 14:56:00
11:56 AM,68.0,35.1,30,29.98,10.0,West,11.5,17.3,N/A,,Scattered Clouds,260,2012-11-02 15:56:00
12:56 PM,71.1,37.0,29,29.94,10.0,West,15.0,21.9,N/A,,Scattered Clouds,260,2012-11-02 16:56:00
1:56 PM,71.1,39.0,31,29.91,10.0,West,13.8,23.0,N/A,,Scattered Clouds,280,2012-11-02 17:56:00
2:56 PM,73.0,37.9,28,29.88,10.0,West,13.8,23.0,N/A,,Partly Cloudy,270,2012-11-02 18:56:00
3:56 PM,73.9,39.0,28,29.86,10.0,WSW,10.4,20.7,N/A,,Scattered Clouds,240,2012-11-02 19:56:00
4:56 PM,73.9,39.9,29,29.86,10.0,WSW,15.0,-,N/A,,Scattered Clouds,250,2012-11-02 20:56:00
5:56 PM,71.1,42.1,35,29.87,10.0,WSW,8.1,-,N/A,,Scattered Clouds,240,2012-11-02 21:56:00
6:56 PM,64.0,43.0,46,29.89,10.0,WSW,6.9,-,N/A,,Scattered Clouds,240,2012-11-02 22:56:00
7:56 PM,59.0,45.0,60,29.91,10.0,SW,4.6,-,N/A,,Clear,220,2012-11-02 23:56:00
8:56 PM,55.0,46.9,74,29.93,10.0,SSW,6.9,-,N/A,,Clear,210,2012-11-03 00:56:00
9:56 PM,55.0,46.9,74,29.94,10.0,SW,5.8,-,N/A,,Clear,230,2012-11-03 01:56:00
10:56 PM,57.0,46.0,67,29.94,10.0,WSW,4.6,-,N/A,,Clear,240,2012-11-03 02:56:00
11:56 PM,57.0,45.0,64,29.94,10.0,WSW,6.9,-,N/A,,Clear,250,2012-11-03 03:56:00